QPF
0.00 0.00 0.01 0.02 0.03 0.03 0.04 0.06 0.07 0.06 0.06 0.05 0.05 0.05 0.05 0.05 0.05 0.04 0.04 0.03 0.06 0.06 0.04 0.04 0.05 0.05 0.04 0.02 0.02 0.02 0.02 0.02 0.00 0.00 0.00 0.00 0.01 0.02 0.03 0.03 0.03 0.02 0.03
0.01 0.01 0.01 0.02 0.04 0.04 0.04 0.04 0.05 0.06 0.05 0.04 0.05 0.04 0.05 0.07 0.07 0.05 0.04 0.03 0.04 0.06 0.05 0.04 0.03 0.05 0.04 0.02 0.01 0.01 0.01 0.01 0.01 0.00 0.00 0.00 0.01 0.02 0.03 0.03 0.03 0.03 0.03
0.00 0.00 0.01 0.01 0.02 0.03 0.03 0.03 0.03 0.06 0.05 0.04 0.04 0.04 0.05 0.06 0.08 0.06 0.05 0.04 0.04 0.04 0.04 0.03 0.02 0.02 0.04 0.03 0.02 0.00 0.00 0.00 0.00 0.00 0.01 0.01 0.01 0.02 0.02 0.03 0.03 0.04 0.04
0.00 0.00 0.01 0.01 0.02 0.02 0.02 0.02 0.02 0.03 0.05 0.04 0.04 0.04 0.04 0.06 0.06 0.05 0.05 0.04 0.03 0.03 0.03 0.02 0.02 0.03 0.03 0.02 0.01 0.00 0.00 0.00 0.01 0.01 0.02 0.01 0.01 0.02 0.03 0.03 0.03 0.03 0.03
0.01 0.01 0.01 0.01 0.02 0.01 0.01 0.01 0.01 0.01 0.03 0.03 0.03 0.03 0.04 0.04 0.04 0.05 0.05 0.04 0.02 0.02 0.02 0.03 0.02 0.02 0.03 0.02 0.01 0.01 0.00 0.00 0.00 0.01 0.01 0.01 0.01 0.01 0.02 0.03 0.02 0.02 0.02
0.01 0.01 0.01 0.01 0.01 0.01 0.01 0.01 0.01 0.01 0.02 0.02 0.01 0.02 0.02 0.03 0.05 0.04 0.04 0.04 0.03 0.02 0.02 0.03 0.02 0.02 0.03 0.02 0.01 0.01 0.01 0.00 0.00 0.01 0.01 0.01 0.01 0.01 0.02 0.02 0.03 0.03 0.02
0.01 0.02 0.02 0.02 0.02 0.01 0.01 0.01 0.01 0.01 0.01 0.02 0.01 0.02 0.02 0.02 0.02 0.02 0.02 0.03 0.03 0.02 0.03 0.03 0.03 0.03 0.02 0.02 0.01 0.01 0.01 0.00 0.01 0.02 0.01 0.01 0.01 0.01 0.02 0.02 0.02 0.03 0.03
0.00 0.02 0.03 0.04 0.03 0.03 0.02 0.02 0.02 0.01 0.01 0.02 0.02 0.01 0.01 0.02 0.01 0.01 0.01 0.02 0.02 0.02 0.03 0.02 0.03 0.02 0.02 0.01 0.00 0.00 0.01 0.00 0.01 0.01 0.02 0.01 0.01 0.01 0.01 0.02 0.02 0.02 0.02
0.00 0.01 0.02 0.04 0.03 0.03 0.03 0.03 0.03 0.03 0.02 0.02 0.03 0.02 0.02 0.02 0.01 0.01 0.01 0.02 0.02 0.02 0.02 0.02 0.02 0.02 0.01 0.00 0.00 0.00 0.00 0.00 0.01 0.02 0.02 0.02 0.01 0.01 0.01 0.02 0.02 0.03 0.02
0.01 0.01 0.01 0.03 0.03 0.02 0.02 0.02 0.02 0.02 0.02 0.03 0.04 0.05 0.03 0.01 0.01 0.01 0.01 0.02 0.01 0.01 0.02 0.02 0.02 0.03 0.01 0.01 0.00 0.00 0.00 0.00 0.01 0.02 0.02 0.01 0.02 0.03 0.02 0.02 0.03 0.03 0.03
0.01 0.01 0.02 0.03 0.03 0.02 0.02 0.02 0.02 0.02 0.02 0.02 0.02 0.03 0.03 0.03 0.03 0.02 0.01 0.01 0.01 0.01 0.01 0.02 0.03 0.03 0.01 0.00 0.00 0.00 0.00 0.00 0.01 0.01 0.01 0.01 0.02 0.04 0.04 0.02 0.02 0.02 0.03
0.01 0.01 0.02 0.02 0.02 0.03 0.03 0.02 0.02 0.03 0.03 0.03 0.02 0.01 0.01 0.01 0.01 0.01 0.01 0.01 0.01 0.01 0.01 0.02 0.03 0.02 0.01 0.00 0.00 0.00 0.00 0.01 0.01 0.01 0.01 0.01 0.02 0.03 0.03 0.03 0.02 0.02 0.03
0.01 0.01 0.01 0.01 0.02 0.02 0.03 0.03 0.03 0.03 0.04 0.03 0.03 0.01 0.01 0.01 0.01 0.01 0.01 0.01 0.01 0.01 0.02 0.02 0.02 0.01 0.01 0.00 0.00 0.00 0.00 0.01 0.01 0.01 0.01 0.01 0.03 0.02 0.02 0.02 0.02 0.02 0.03
0.01 0.01 0.00 0.01 0.01 0.02 0.03 0.04 0.04 0.04 0.04 0.03 0.03 0.03 0.01 0.01 0.01 0.01 0.01 0.02 0.02 0.01 0.02 0.03 0.03 0.01 0.01 0.01 0.00 0.00 0.00 0.00 0.01 0.01 0.01 0.01 0.03 0.03 0.02 0.02 0.02 0.02 0.02
0.01 0.00 0.00 0.01 0.01 0.01 0.02 0.03 0.04 0.04 0.04 0.03 0.02 0.02 0.02 0.01 0.01 0.01 0.01 0.02 0.02 0.02 0.02 0.02 0.03 0.02 0.01 0.01 0.01 0.00 0.00 0.00 0.00 0.01 0.01 0.01 0.02 0.03 0.03 0.02 0.02 0.02 0.01
0.01 0.01 0.01 0.02 0.01 0.02 0.02 0.02 0.03 0.03 0.03 0.03 0.02 0.02 0.02 0.02 0.02 0.02 0.02 0.02 0.02 0.02 0.02 0.02 0.02 0.02 0.01 0.01 0.01 0.01 0.00 0.00 0.00 0.01 0.01 0.01 0.01 0.02 0.02 0.03 0.02 0.02 0.02
0.01 0.01 0.01 0.01 0.01 0.01 0.02 0.02 0.02 0.02 0.02 0.02 0.02 0.02 0.03 0.03 0.02 0.01 0.02 0.02 0.02 0.02 0.03 0.02 0.02 0.02 0.02 0.01 0.01 0.01 0.01 0.01 0.00 0.00 0.01 0.01 0.01 0.01 0.01 0.02 0.03 0.03 0.03
0.02 0.01 0.01 0.01 0.02 0.02 0.02 0.02 0.02 0.02 0.02 0.02 0.03 0.02 0.02 0.02 0.03 0.02 0.01 0.02 0.02 0.02 0.02 0.02 0.02 0.03 0.03 0.02 0.01 0.01 0.01 0.01 0.01 0.00 0.01 0.01 0.01 0.01 0.00 0.01 0.02 0.02 0.03
0.02 0.02 0.02 0.01 0.02 0.02 0.02 0.02 0.02 0.02 0.03 0.03 0.03 0.03 0.01 0.01 0.01 0.01 0.01 0.00 0.01 0.02 0.02 0.02 0.02 0.02 0.02 0.02 0.02 0.01 0.01 0.01 0.00 0.00 0.00 0.01 0.01 0.01 0.01 0.00 0.00 0.01 0.02
0.02 0.03 0.02 0.01 0.01 0.01 0.01 0.01 0.01 0.02 0.02 0.02 0.02 0.03 0.03 0.02 0.01 0.01 0.01 0.00 0.01 0.01 0.02 0.03 0.03 0.03 0.02 0.02 0.02 0.01 0.01 0.01 0.00 0.00 0.00 0.00 0.00 0.01 0.01 0.01 0.00 0.00 0.01
0.03 0.03 0.03 0.02 0.01 0.01 0.01 0.01 0.01 0.01 0.02 0.03 0.03 0.02 0.03 0.04 0.04 0.03 0.02 0.01 0.01 0.01 0.01 0.02 0.02 0.03 0.03 0.02 0.02 0.02 0.02 0.01 0.01 0.01 0.00 0.00 0.00 0.00 0.01 0.01 0.01 0.00 0.00
0.02 0.03 0.03 0.03 0.02 0.01 0.01 0.01 0.00 0.01 0.01 0.02 0.02 0.03 0.03 0.03 0.04 0.04 0.04 0.02 0.01 0.01 0.01 0.02 0.02 0.03 0.03 0.03 0.03 0.02 0.02 0.02 0.02 0.01 0.01 0.00 0.00 0.00 0.01 0.01 0.02 0.01 0.00
0.01 0.03 0.04 0.04 0.03 0.02 0.01 0.01 0.01 0.01 0.01 0.01 0.01 0.02 0.02 0.03 0.03 0.03 0.04 0.03 0.02 0.02 0.02 0.02 0.02 0.02 0.03 0.03 0.03 0.03 0.02 0.02 0.02 0.02 0.01 0.01 0.01 0.01 0.01 0.01 0.02 0.01 0.01
0.01 0.03 0.04 0.04 0.04 0.03 0.02 0.02 0.02 0.02 0.01 0.01 0.01 0.01 0.01 0.02 0.02 0.02 0.03 0.03 0.03 0.02 0.03 0.02 0.02 0.02 0.03 0.03 0.04 0.03 0.02 0.02 0.02 0.02 0.02 0.01 0.01 0.01 0.02 0.02 0.02 0.02 0.02
0.02 0.02 0.04 0.04 0.04 0.04 0.04 0.04 0.04 0.04 0.03 0.03 0.02 0.02 0.01 0.01 0.02 0.02 0.02 0.03 0.03 0.03 0.03 0.03 0.02 0.02 0.03 0.03 0.03 0.04 0.03 0.02 0.01 0.01 0.01 0.01 0.01 0.01 0.01 0.02 0.02 0.02 0.02
0.04 0.04 0.05 0.07 0.07 0.07 0.07 0.07 0.07 0.05 0.04 0.04 0.04 0.04 0.02 0.01 0.02 0.02 0.02 0.03 0.03 0.03 0.02 0.02 0.03 0.03 0.03 0.03 0.03 0.03 0.04 0.03 0.02 0.02 0.01 0.01 0.01 0.01 0.01 0.01 0.02 0.02 0.02
MSLP
1021.12 1021.26 1021.24 1021.15 1021.04 1020.99 1020.99 1021.04 1021.09 1021.10 1021.06 1020.94 1020.78 1020.60 1020.43 1020.31 1020.24 1020.23 1020.25 1020.27 1020.28 1020.26 1020.20 1020.13 1020.04 1019.96 1019.89 1019.83 1019.77 1019.71 1019.62 1019.53 1019.43 1019.34 1019.27 1019.25 1019.25 1019.29 1019.35 1019.41 1019.45 1019.48 1019.49
1020.95 1021.07 1021.07 1021.04 1021.03 1021.06 1021.15 1021.25 1021.34 1021.37 1021.33 1021.22 1021.07 1020.91 1020.78 1020.71 1020.70 1020.74 1020.81 1020.88 1020.92 1020.92 1020.87 1020.80 1020.69 1020.58 1020.46 1020.34 1020.21 1020.07 1019.92 1019.77 1019.64 1019.54 1019.49 1019.48 1019.52 1019.59 1019.66 1019.72 1019.75 1019.76 1019.75
1020.87 1020.96 1020.98 1020.99 1021.05 1021.17 1021.33 1021.49 1021.61 1021.67 1021.64 1021.55 1021.42 1021.29 1021.20 1021.17 1021.20 1021.27 1021.36 1021.44 1021.48 1021.47 1021.42 1021.33 1021.21 1021.08 1020.93 1020.77 1020.60 1020.41 1020.22 1020.05 1019.90 1019.80 1019.76 1019.78 1019.84 1019.93 1020.01 1020.06 1020.08 1020.06 1020.03
1020.89 1020.94 1020.97 1021.04 1021.16 1021.34 1021.56 1021.77 1021.92 1022.00 1022.00 1021.93 1021.83 1021.74 1021.69 1021.68 1021.73 1021.80 1021.88 1021.93 1021.95 1021.92 1021.84 1021.74 1021.62 1021.48 1021.33 1021.17 1020.98 1020.79 1020.59 1020.41 1020.26 1020.16 1020.14 1020.16 1020.24 1020.32 1020.40 1020.43 1020.43 1020.38 1020.32
1020.98 1021.02 1021.07 1021.18 1021.36 1021.60 1021.86 1022.10 1022.28 1022.37 1022.39 1022.35 1022.29 1022.23 1022.21 1022.23 1022.27 1022.33 1022.37 1022.38 1022.35 1022.28 1022.18 1022.06 1021.94 1021.82 1021.70 1021.56 1021.41 1021.23 1021.05 1020.88 1020.74 1020.65 1020.62 1020.65 1020.71 1020.77 1020.82 1020.82 1020.78 1020.70 1020.61
1021.13 1021.17 1021.26 1021.42 1021.65 1021.93 1022.22 1022.48 1022.67 1022.78 1022.82 1022.80 1022.77 1022.75 1022.75 1022.78 1022.82 1022.85 1022.85 1022.81 1022.73 1022.61 1022.49 1022.37 1022.26 1022.17 1022.08 1021.99 1021.88 1021.75 1021.60 1021.45 1021.32 1021.24 1021.20 1021.20 1021.22 1021.25 1021.25 1021.21 1021.13 1021.01 1020.89
1021.29 1021.37 1021.50 1021.72 1022.00 1022.33 1022.64 1022.90 1023.09 1023.21 1023.25 1023.26 1023.26 1023.27 1023.30 1023.34 1023.38 1023.39 1023.35 1023.27 1023.14 1022.99 1022.84 1022.71 1022.62 1022.56 1022.51 1022.47 1022.41 1022.32 1022.21 1022.08 1021.96 1021.87 1021.81 1021.78 1021.76 1021.73 1021.68 1021.59 1021.46 1021.31 1021.16
1021.44 1021.57 1021.77 1022.05 1022.39 1022.74 1023.07 1023.33 1023.52 1023.63 1023.68 1023.70 1023.73 1023.77 1023.83 1023.89 1023.94 1023.94 1023.88 1023.77 1023.61 1023.43 1023.27 1023.14 1023.05 1023.01 1022.99 1022.97 1022.95 1022.89 1022.81 1022.70 1022.60 1022.50 1022.41 1022.35 1022.28 1022.20 1022.09 1021.95 1021.78 1021.60 1021.44
1021.55 1021.75 1022.03 1022.38 1022.76 1023.14 1023.48 1023.74 1023.92 1024.02 1024.07 1024.11 1024.15 1024.22 1024.31 1024.40 1024.46 1024.48 1024.42 1024.30 1024.14 1023.95 1023.77 1023.63 1023.54 1023.49 1023.47 1023.47 1023.45 1023.41 1023.34 1023.26 1023.16 1023.06 1022.96 1022.87 1022.76 1022.64 1022.49 1022.32 1022.12 1021.93 1021.75
1021.60 1021.88 1022.24 1022.65 1023.08 1023.48 1023.83 1024.09 1024.26 1024.36 1024.42 1024.46 1024.53 1024.62 1024.74 1024.85 1024.94 1024.97 1024.94 1024.83 1024.68 1024.50 1024.32 1024.17 1024.05 1023.98 1023.94 1023.91 1023.88 1023.84 1023.78 1023.70 1023.62 1023.53 1023.44 1023.34 1023.22 1023.08 1022.91 1022.71 1022.50 1022.30 1022.13
1021.58 1021.95 1022.37 1022.83 1023.30 1023.73 1024.09 1024.35 1024.53 1024.63 1024.69 1024.75 1024.83 1024.94 1025.08 1025.21 1025.33 1025.39 1025.38 1025.31 1025.18 1025.02 1024.84 1024.68 1024.54 1024.43 1024.35 1024.29 1024.23 1024.17 1024.11 1024.05 1023.99 1023.93 1023.86 1023.78 1023.67 1023.53 1023.36 1023.16 1022.95 1022.75 1022.58
1021.51 1021.94 1022.42 1022.92 1023.41 1023.86 1024.23 1024.50 1024.69 1024.81 1024.89 1024.97 1025.06 1025.18 1025.33 1025.48 1025.61 1025.70 1025.73 1025.69 1025.60 1025.46 1025.30 1025.13 1024.97 1024.83 1024.70 1024.59 1024.50 1024.43 1024.38 1024.34 1024.31 1024.29 1024.27 1024.22 1024.14 1024.02 1023.86 1023.67 1023.47 1023.27 1023.11
1021.38 1021.86 1022.38 1022.90 1023.41 1023.86 1024.25 1024.55 1024.76 1024.91 1025.02 1025.12 1025.23 1025.36 1025.50 1025.66 1025.79 1025.90 1025.96 1025.96 1025.90 1025.80 1025.66 1025.50 1025.33 1025.16 1025.00 1024.86 1024.75 1024.67 1024.62 1024.61 1024.63 1024.66 1024.69 1024.69 1024.65 1024.55 1024.41 1024.24 1024.05 1023.86 1023.69
1021.20 1021.72 1022.24 1022.78 1023.29 1023.75 1024.16 1024.49 1024.74 1024.94 1025.09 1025.22 1025.35 1025.48 1025.62 1025.77 1025.90 1026.01 1026.09 1026.12 1026.10 1026.04 1025.93 1025.79 1025.62 1025.45 1025.27 1025.11 1024.99 1024.92 1024.90 1024.92 1024.99 1025.07 1025.15 1025.20 1025.20 1025.13 1025.01 1024.85 1024.66 1024.47 1024.30
1020.95 1021.49 1022.03 1022.56 1023.07 1023.54 1023.97 1024.34 1024.65 1024.90 1025.11 1025.28 1025.43 1025.58 1025.71 1025.84 1025.97 1026.08 1026.16 1026.21 1026.23 1026.20 1026.14 1026.02 1025.88 1025.71 1025.55 1025.40 1025.28 1025.22 1025.23 1025.29 1025.40 1025.54 1025.66 1025.74 1025.77 1025.73 1025.62 1025.46 1025.27 1025.08 1024.91
1020.62 1021.19 1021.73 1022.26 1022.77 1023.25 1023.71 1024.12 1024.49 1024.81 1025.09 1025.32 1025.51 1025.66 1025.80 1025.93 1026.04 1026.13 1026.22 1026.29 1026.33 1026.34 1026.31 1026.24 1026.12 1025.99 1025.84 1025.71 1025.62 1025.59 1025.62 1025.72 1025.86 1026.03 1026.18 1026.28 1026.33 1026.30 1026.19 1026.04 1025.85 1025.66 1025.49
1020.18 1020.79 1021.36 1021.90 1022.41 1022.92 1023.40 1023.87 1024.30 1024.69 1025.04 1025.33 1025.56 1025.75 1025.90 1026.02 1026.13 1026.22 1026.31 1026.39 1026.45 1026.49 1026.49 1026.45 1026.38 1026.27 1026.16 1026.06 1026.00 1025.99 1026.05 1026.17 1026.33 1026.51 1026.67 1026.78 1026.83 1026.81 1026.71 1026.56 1026.38 1026.20 1026.03
1019.63 1020.30 1020.91 1021.48 1022.02 1022.55 1023.08 1023.59 1024.08 1024.54 1024.95 1025.30 1025.59 1025.82 1026.00 1026.14 1026.25 1026.35 1026.44 1026.52 1026.60 1026.66 1026.69 1026.68 1026.64 1026.57 1026.49 1026.42 1026.39 1026.40 1026.47 1026.60 1026.76 1026.94 1027.09 1027.21 1027.25 1027.23 1027.14 1027.01 1026.85 1026.68 1026.52
1018.98 1019.73 1020.41 1021.03 1021.62 1022.19 1022.75 1023.31 1023.85 1024.36 1024.83 1025.23 1025.57 1025.85 1026.06 1026.23 1026.37 1026.48 1026.59 1026.69 1026.78 1026.85 1026.90 1026.91 1026.90 1026.86 1026.81 1026.77 1026.75 1026.78 1026.86 1026.98 1027.13 1027.29 1027.44 1027.54 1027.59 1027.57 1027.50 1027.39 1027.26 1027.12 1026.99
1018.24 1019.10 1019.87 1020.57 1021.21 1021.83 1022.44 1023.03 1023.60 1024.14 1024.65 1025.10 1025.48 1025.80 1026.06 1026.27 1026.45 1026.60 1026.73 1026.85 1026.96 1027.04 1027.11 1027.14 1027.14 1027.12 1027.10 1027.07 1027.08 1027.11 1027.19 1027.30 1027.44 1027.58 1027.71 1027.80 1027.84 1027.84 1027.80 1027.72 1027.63 1027.53 1027.43
1017.47 1018.44 1019.32 1020.11 1020.83 1021.51 1022.15 1022.76 1023.35 1023.90 1024.42 1024.89 1025.30 1025.66 1025.96 1026.23 1026.45 1026.65 1026.82 1026.97 1027.10 1027.21 1027.29 1027.34 1027.36 1027.36 1027.35 1027.35 1027.37 1027.41 1027.48 1027.59 1027.70 1027.82 1027.93 1028.01 1028.06 1028.07 1028.05 1028.02 1027.96 1027.90 1027.83
1016.73 1017.80 1018.79 1019.68 1020.48 1021.21 1021.88 1022.51 1023.09 1023.64 1024.15 1024.61 1025.04 1025.42 1025.77 1026.08 1026.36 1026.61 1026.83 1027.03 1027.19 1027.32 1027.42 1027.49 1027.53 1027.55 1027.57 1027.59 1027.63 1027.69 1027.77 1027.86 1027.96 1028.06 1028.15 1028.22 1028.26 1028.29 1028.29 1028.28 1028.26 1028.23 1028.18
1016.07 1017.23 1018.31 1019.28 1020.16 1020.95 1021.65 1022.28 1022.86 1023.38 1023.85 1024.30 1024.71 1025.11 1025.48 1025.84 1026.17 1026.48 1026.76 1027.00 1027.20 1027.37 1027.50 1027.59 1027.67 1027.72 1027.77 1027.83 1027.89 1027.97 1028.06 1028.15 1028.24 1028.33 1028.40 1028.45 1028.48 1028.51 1028.52 1028.52 1028.51 1028.50 1028.45
1015.55 1016.75 1017.88 1018.92 1019.87 1020.70 1021.43 1022.07 1022.63 1023.12 1023.56 1023.97 1024.37 1024.76 1025.15 1025.53 1025.91 1026.27 1026.60 1026.89 1027.14 1027.35 1027.51 1027.64 1027.75 1027.85 1027.95 1028.04 1028.15 1028.26 1028.37 1028.48 1028.57 1028.63 1028.68 1028.72 1028.73 1028.74 1028.73 1028.73 1028.71 1028.68 1028.63
1015.16 1016.35 1017.50 1018.58 1019.56 1020.44 1021.20 1021.85 1022.39 1022.86 1023.27 1023.65 1024.02 1024.40 1024.79 1025.20 1025.60 1026.00 1026.37 1026.71 1027.00 1027.25 1027.46 1027.63 1027.79 1027.93 1028.08 1028.23 1028.39 1028.54 1028.69 1028.81 1028.91 1028.97 1029.00 1029.00 1028.99 1028.96 1028.93 1028.89 1028.85 1028.79 1028.71
1014.88 1016.01 1017.13 1018.21 1019.22 1020.12 1020.91 1021.58 1022.13 1022.59 1022.98 1023.34 1023.69 1024.06 1024.44 1024.85 1025.28 1025.70 1026.10 1026.47 1026.80 1027.08 1027.33 1027.55 1027.75 1027.95 1028.15 1028.36 1028.57 1028.77 1028.96 1029.11 1029.22 1029.28 1029.30 1029.28 1029.24 1029.17 1029.09 1029.01 1028.92 1028.82 1028.70
Thickness
5677 5677 5678 5680 5682 5683 5684 5685 5686 5687 5688 5689 5689 5690 5691 5692 5693 5694 5694 5695 5695 5696 5696 5697 5697 5698 5698 5698 5698 5698 5698 5699 5699 5699 5700 5701 5702 5702 5703 5703 5704 5703 5703
5676 5675 5675 5677 5678 5679 5680 5681 5682 5682 5683 5684 5685 5686 5687 5687 5688 5689 5690 5691 5691 5692 5692 5693 5693 5694 5694 5694 5694 5694 5695 5695 5696 5696 5697 5697 5698 5699 5699 5700 5700 5700 5700
5674 5672 5672 5673 5675 5675 5676 5677 5678 5678 5679 5679 5680 5681 5682 5683 5684 5685 5685 5686 5687 5687 5688 5689 5689 5689 5689 5690 5690 5690 5691 5692 5692 5693 5694 5694 5694 5695 5695 5696 5696 5696 5696
5671 5669 5668 5669 5670 5671 5671 5672 5673 5673 5674 5675 5676 5676 5677 5678 5679 5680 5681 5681 5682 5683 5683 5684 5684 5684 5685 5685 5686 5686 5687 5688 5689 5689 5690 5690 5691 5691 5692 5692 5692 5692 5692
5667 5665 5664 5665 5665 5666 5666 5667 5668 5668 5669 5670 5671 5671 5672 5673 5674 5675 5675 5676 5677 5677 5678 5678 5679 5679 5680 5680 5681 5682 5682 5683 5684 5685 5685 5686 5686 5687 5687 5688 5688 5688 5688
5662 5660 5659 5660 5660 5661 5661 5662 5662 5663 5664 5665 5666 5666 5667 5668 5669 5669 5670 5670 5671 5672 5673 5673 5674 5674 5675 5675 5676 5677 5678 5679 5680 5681 5681 5681 5682 5682 5683 5683 5683 5683 5684
5656 5655 5654 5654 5655 5655 5656 5656 5657 5657 5658 5659 5660 5661 5661 5662 5663 5664 5664 5665 5666 5667 5667 5668 5669 5669 5670 5671 5671 5672 5673 5675 5675 5676 5677 5677 5677 5678 5679 5679 5679 5679 5679
5651 5649 5648 5648 5649 5649 5650 5650 5651 5651 5652 5653 5654 5655 5655 5656 5657 5658 5659 5659 5660 5661 5662 5662 5663 5664 5664 5665 5666 5667 5669 5670 5671 5671 5671 5671 5672 5673 5674 5674 5674 5675 5675
5645 5643 5642 5641 5642 5643 5643 5644 5644 5645 5645 5646 5647 5648 5649 5650 5651 5652 5653 5654 5654 5655 5656 5657 5657 5658 5658 5660 5661 5662 5664 5665 5666 5666 5666 5666 5667 5668 5669 5669 5670 5670 5670
5638 5637 5636 5635 5636 5636 5636 5637 5637 5638 5639 5639 5640 5641 5642 5643 5645 5645 5646 5647 5648 5649 5650 5651 5651 5652 5653 5654 5655 5657 5658 5659 5660 5660 5660 5661 5662 5663 5664 5664 5665 5665 5665
5630 5630 5629 5629 5629 5629 5630 5630 5630 5631 5631 5632 5634 5635 5636 5637 5638 5639 5640 5641 5641 5642 5643 5645 5645 5646 5647 5648 5649 5651 5652 5653 5654 5654 5655 5656 5657 5658 5658 5659 5659 5660 5660
5622 5622 5621 5622 5622 5622 5623 5623 5623 5624 5624 5625 5626 5627 5629 5630 5631 5632 5633 5634 5635 5636 5637 5639 5640 5640 5641 5642 5643 5645 5646 5647 5648 5648 5648 5649 5651 5652 5652 5653 5653 5654 5655
5614 5614 5614 5614 5614 5615 5615 5615 5616 5617 5617 5618 5619 5620 5622 5623 5624 5624 5626 5627 5628 5629 5630 5632 5633 5634 5635 5636 5637 5638 5640 5641 5641 5642 5642 5643 5645 5645 5646 5647 5647 5648 5649
5606 5606 5606 5606 5606 5607 5607 5608 5608 5609 5610 5611 5612 5613 5614 5615 5616 5617 5618 5619 5620 5622 5623 5625 5626 5628 5629 5630 5630 5632 5633 5635 5635 5636 5636 5637 5638 5639 5640 5640 5641 5642 5643
5598 5597 5597 5598 5598 5598 5599 5599 5600 5601 5602 5603 5604 5605 5606 5607 5607 5609 5610 5611 5612 5614 5615 5617 5618 5620 5621 5623 5624 5625 5627 5628 5629 5629 5629 5630 5631 5632 5633 5634 5635 5636 5636
5590 5589 5589 5589 5589 5589 5589 5590 5591 5592 5593 5594 5595 5596 5597 5598 5599 5600 5601 5602 5604 5605 5607 5609 5610 5612 5614 5615 5616 5617 5619 5621 5621 5621 5622 5622 5623 5624 5626 5626 5627 5629 5630
5582 5581 5580 5580 5580 5580 5580 5581 5582 5582 5583 5584 5585 5586 5587 5588 5589 5590 5592 5593 5594 5596 5598 5600 5602 5603 5605 5606 5607 5609 5610 5612 5613 5614 5614 5615 5616 5616 5617 5619 5620 5621 5622
5573 5572 5572 5572 5572 5572 5572 5572 5572 5573 5573 5574 5575 5576 5577 5578 5579 5580 5582 5583 5584 5586 5588 5590 5591 5593 5594 5596 5597 5599 5601 5603 5604 5606 5607 5607 5608 5608 5609 5610 5612 5613 5614
5564 5563 5562 5563 5562 5562 5562 5562 5562 5562 5563 5564 5565 5566 5566 5567 5569 5570 5571 5572 5573 5575 5577 5579 5581 5582 5583 5585 5587 5589 5592 5593 5596 5597 5598 5599 5599 5600 5601 5602 5603 5605 5606
5555 5554 5553 5552 5552 5551 5551 5551 5551 5551 5552 5553 5554 5555 5556 5557 5558 5559 5560 5561 5562 5564 5565 5568 5569 5570 5572 5574 5577 5579 5581 5584 5586 5588 5589 5590 5591 5592 5593 5594 5595 5596 5597
5545 5544 5544 5543 5541 5541 5540 5540 5539 5539 5540 5541 5542 5543 5544 5546 5547 5548 5549 5549 5550 5552 5553 5556 5557 5558 5559 5561 5563 5566 5570 5575 5577 5578 5580 5580 5581 5582 5584 5585 5586 5587 5589
5536 5534 5534 5532 5531 5530 5530 5529 5529 5528 5528 5529 5530 5531 5533 5534 5535 5536 5537 5537 5538 5539 5541 5543 5544 5545 5546 5548 5549 5551 5554 5560 5564 5568 5568 5569 5571 5573 5574 5576 5577 5578 5580
5526 5524 5524 5523 5521 5520 5519 5518 5517 5517 5516 5516 5518 5519 5521 5522 5523 5524 5525 5526 5526 5527 5528 5530 5531 5533 5533 5535 5537 5538 5539 5543 5546 5553 5556 5558 5560 5561 5564 5566 5567 5569 5570
5516 5514 5513 5512 5511 5510 5509 5508 5508 5507 5507 5507 5507 5508 5509 5511 5512 5513 5513 5514 5514 5515 5516 5518 5519 5520 5521 5522 5524 5527 5529 5531 5530 5535 5541 5545 5548 5550 5552 5554 5556 5558 5560
5506 5504 5502 5501 5500 5499 5499 5498 5498 5497 5497 5497 5497 5497 5498 5499 5500 5500 5501 5502 5502 5503 5504 5505 5507 5508 5509 5510 5511 5513 5515 5518 5519 5519 5523 5528 5532 5536 5539 5542 5544 5546 5548
5495 5493 5492 5491 5490 5489 5488 5487 5487 5487 5487 5486 5486 5486 5487 5487 5488 5489 5489 5491 5491 5492 5492 5494 5495 5496 5497 5498 5500 5501 5502 5504 5506 5507 5509 5512 5516 5522 5526 5529 5532 5534 5537